NOAA 16 DEB, 41061

Orbit data source: Space-Track

NOAA 16 DEB, 41061 is space debris in SSO originally from a launch on Thu, 21 Sep 2000 UTC launched from the Air Force Western Test Range (AFWTR). Debris objects in space refer to the collection of defunct objects orbiting the Earth. Examples of debris include non-operational satellites, rocket bodies, and fragments generated from explosions, collisions, or faulty payload assembly.

Loading next visibility...
Identifier
41061, 2000-055U
Orbit
SSO
Country
Flag of USUS
Related business
Manufacturer
Unknown
Mission
Spacecraft
Bus & Motor
Unknown
Mass
Unknown
Launch date (UTC)
2000-09-21 (25 years ago)
Launch vehicle
Unknown
Launch site
Air Force Western Test Range (AFWTR)
Object type
Payload
Rocket body
Debris
Shape & HBR
Unknown shape, 0.1 m
Radar Cross Section
Small (<0.1 m²)

Expand to show TLE details & history
Last TLE update: 11 hours ago

TLE from 11 hours ago
0 NOAA 16 DEB
1 41061U 00055U   26074.19807509  .00001586  00000-0  71693-3 0  9999
2 41061  98.6855 160.7653 0019904 182.3594 177.7494 14.23368726532942
Epoch: 2026-03-15T04:45Z
TLE epoch observation values (Epoch: 2026-03-15T04:45:13.687Z)
Latitude
-0.00001°
Longitude
-83.35008°
Altitude
831.209 km
Speed
7.43 km/s
True Right ascension
10h 43m 03s
True Declination
0° 00' 00"
Sunlit
Object was in full shadow at epoch
Visualization orbit readout
Latitude
Unknown
Longitude
Unknown
Altitude
Unknown
Speed
Unknown
Apparent Right ascension
Unknown
Apparent Declination
Unknown
Sunlit
N/A
Visualization observer readout
Local Sidereal Time
20:27:02
Azimuth
Unknown
Elevation
Unknown
Doppler factor
Unknown
Orbital elements
Apogee altitude
825.445 km
Perigee altitude
796.826 km
Semi-major axis
7,189.272 km
Eccentricity
0.00199
Inclination
98.6855°
RAAN
160.7653°
Arg. of periapsis
182.3594°
True anomaly
177.75833°
Mean anomaly
177.7494°
Eccentric anomaly
177.75387°
Mean motion
3.56054 °/min
Orbital period
101.11 mins
BSTAR
0.00071693
Loading maneuver chart data...
Computing Atmospheric mass density...
Loading historical data...
Loading historical data...
Loading historical data...
Loading historical data...
Loading historical data...
Loading historical data...
Loading historical data...

Documentation

Showing up to 5 results
|